Waarnemingen

Advertentie
Mijn weer
Cagliari/Elmas, Italië (16560): temperatuur & dauwpunt: 12.02.2019 01:00:00 - 18.02.2019 01:00:00 (CET)Cagliari/Elmas, Italië (16560): windsnelheid: 12.02.2019 01:00:00 - 18.02.2019 01:00:00 (CET)Cagliari/Elmas, Italië (16560): windrichting: 12.02.2019 01:00:00 - 18.02.2019 01:00:00 (CET)Cagliari/Elmas, Italië (16560): luchtdruk: 12.02.2019 01:00:00 - 18.02.2019 01:00:00 (CET)Cagliari/Elmas, Italië (16560): zicht: 12.02.2019 01:00:00 - 18.02.2019 01:00:00 (CET)Cagliari/Elmas, Italië (16560): neerslag: 12.02.2019 01:00:00 - 18.02.2019 01:00:00 (CET)
Datum & Tijd tt [°C] td [°C] ff [km/u] ff [kn] dd ppp [hPa] vv [km] rr [mm]
18.02.2019 01:00:00 6,8 4,8 5 3 NW 1027,6 10 -
18.02.2019 00:00:00 7,0 4,0 8 4 ONO - 10 -
17.02.2019 23:00:00 7,0 4,0 8 4 ONO - 10 -
17.02.2019 22:00:00 9,2 5,7 11 6 O 1028,5 10 0,0
17.02.2019 21:00:00 11,0 6,0 11 6 ZZO - 10 -
17.02.2019 20:00:00 11,0 6,0 13 7 ZZO - 10 -
17.02.2019 19:00:00 12,0 6,0 13 7 ZZO - 10 -
17.02.2019 18:00:00 12,0 5,0 13 7 ZZO - 10 -
17.02.2019 17:00:00 13,0 5,0 15 8 ZO - 10 -
17.02.2019 16:00:00 14,0 5,7 13 7 ZZO 1028,2 10 0,0
17.02.2019 15:00:00 15,0 7,0 15 8 Z - 10 -
17.02.2019 14:00:00 15,0 6,0 13 7 Z - 10 -
17.02.2019 13:00:00 15,0 7,0 13 7 Z 1030,1 10 -
17.02.2019 12:00:00 14,0 6,0 5 3 Z - 10 -
17.02.2019 11:00:00 - - - - - - - -
17.02.2019 10:00:00 8,4 5,9 8 4 NW 1031,0 10 0,0
17.02.2019 09:00:00 5,0 4,0 8 4 N - 10 -
17.02.2019 08:00:00 2,0 2,0 9 5 NNW - 10 -
17.02.2019 07:00:00 2,5 1,8 9 5 NNW 1030,7 10 -
17.02.2019 06:00:00 2,0 1,0 11 6 NNW - 8 -
17.02.2019 05:00:00 3,0 2,0 9 5 NNW - 10 -
17.02.2019 04:00:00 2,9 2,2 11 6 NNW 1030,0 8 0,0
17.02.2019 03:00:00 5,0 4,0 9 5 NW - 8 -
17.02.2019 02:00:00 5,0 4,0 9 5 NNW - 10 -
17.02.2019 01:00:00 5,4 4,1 5 3 NW 1030,8 10 -
17.02.2019 00:00:00 8,0 7,0 5 3 WNW - 10 -
16.02.2019 23:00:00 8,0 7,0 8 4 WZW - 10 -
16.02.2019 22:00:00 9,4 6,0 2 1 - 1031,1 10 0,0
16.02.2019 21:00:00 11,0 7,0 8 4 ZZO - 10 -
16.02.2019 20:00:00 11,0 7,0 9 5 ZZO - 10 -
16.02.2019 19:00:00 11,1 6,8 11 6 ZO 1030,3 10 -
16.02.2019 18:00:00 13,0 7,0 13 7 ZZO - 10 -
16.02.2019 17:00:00 14,0 7,0 15 8 ZZO - 10 -
16.02.2019 16:00:00 14,7 6,9 13 7 Z 1030,0 10 0,0
16.02.2019 15:00:00 15,0 7,0 15 8 ZZO - 10 -
16.02.2019 14:00:00 15,0 7,0 15 8 ZZO - 10 -
16.02.2019 13:00:00 15,4 7,4 11 6 Z 1031,1 10 -
16.02.2019 12:00:00 15,0 7,0 11 6 Z - 10 -
16.02.2019 11:00:00 13,0 7,0 5 3 ZZO - 10 -
16.02.2019 10:00:00 9,4 5,8 8 4 NW 1030,7 10 0,0
16.02.2019 09:00:00 6,0 4,0 4 2 - - 10 -
16.02.2019 08:00:00 3,0 2,0 5 3 N - 9 -
16.02.2019 07:00:00 4,0 3,3 5 3 NW 1029,2 10 -
16.02.2019 06:00:00 4,0 3,0 8 4 NNW - 10 -
16.02.2019 05:00:00 4,0 3,0 8 4 NNW - 10 -
16.02.2019 04:00:00 4,2 3,4 9 5 NNW 1028,2 10 0,0
16.02.2019 03:00:00 5,0 4,0 11 6 NNW - 10 -
16.02.2019 02:00:00 - - - - - - - -
16.02.2019 01:00:00 5,6 4,3 8 4 N 1028,1 10 -
16.02.2019 00:00:00 6,0 5,0 11 6 NNW - 9 -
15.02.2019 23:00:00 7,0 6,0 9 5 NNW - 10 -
15.02.2019 22:00:00 9,6 8,1 13 7 W 1027,9 10 0,0
15.02.2019 21:00:00 10,0 7,0 2 1 - - 10 -
15.02.2019 20:00:00 11,0 7,0 9 5 NNW - 10 -
15.02.2019 19:00:00 12,4 5,6 11 6 NO 1027,0 10 -
15.02.2019 18:00:00 15,0 3,0 4 2 O - 10 -
15.02.2019 17:00:00 16,0 2,0 8 4 ZZO - 10 -
15.02.2019 16:00:00 - - - - - - - -
15.02.2019 15:00:00 17,0 7,0 11 6 Z - 10 -
15.02.2019 14:00:00 18,0 -3,0 8 4 WZW - 10 -
15.02.2019 13:00:00 16,2 2,8 11 6 NW 1028,7 10 -
15.02.2019 12:00:00 13,0 6,0 15 8 NW - 10 -
15.02.2019 11:00:00 11,0 6,0 15 8 NW - 10 -
15.02.2019 10:00:00 8,7 5,5 13 7 NW 1030,4 10 0,0
15.02.2019 09:00:00 5,0 4,0 11 6 NNW - 10 -
15.02.2019 08:00:00 4,0 4,0 15 8 NW - 10 -
15.02.2019 07:00:00 2,9 2,2 11 6 NW 1030,8 10 -
15.02.2019 06:00:00 3,0 2,0 11 6 NW - 10 -
15.02.2019 05:00:00 4,0 4,0 13 7 NW - 10 -
15.02.2019 04:00:00 4,0 3,3 13 7 NNW 1030,9 10 0,0
15.02.2019 03:00:00 5,0 4,0 13 7 NNW - 10 -
15.02.2019 02:00:00 5,0 4,0 13 7 NNW - 10 -
15.02.2019 01:00:00 4,9 3,9 13 7 NNW 1032,1 10 -
15.02.2019 00:00:00 6,0 5,0 9 5 NW - 10 -
14.02.2019 23:00:00 8,0 7,0 9 5 NW - 10 -
14.02.2019 22:00:00 7,4 5,5 8 4 NW 1032,5 10 0,0
14.02.2019 21:00:00 9,0 6,0 8 4 N - 10 -
14.02.2019 20:00:00 11,0 7,0 8 4 NO - 10 -
14.02.2019 19:00:00 11,4 6,8 8 4 NO 1032,9 10 -
14.02.2019 18:00:00 12,0 7,0 8 4 ZO - 10 -
14.02.2019 17:00:00 14,0 7,0 11 6 Z - 10 -
14.02.2019 16:00:00 14,9 6,9 9 5 Z 1032,6 10 0,0
14.02.2019 15:00:00 15,0 3,0 9 5 Z - 10 -
14.02.2019 14:00:00 16,0 3,0 9 5 ZZW - 10 -
14.02.2019 13:00:00 15,5 2,4 9 5 Z 1034,0 10 -
14.02.2019 12:00:00 15,0 1,0 9 5 Z - 10 -
14.02.2019 11:00:00 11,0 4,0 4 2 - - 10 -
14.02.2019 10:00:00 7,6 4,4 8 4 NW 1034,7 10 0,0
14.02.2019 09:00:00 4,0 3,0 9 5 NNW - 10 -
14.02.2019 08:00:00 2,0 1,0 9 5 NW - 8 -
14.02.2019 07:00:00 2,0 1,5 8 4 NNW 1033,8 10 -
14.02.2019 06:00:00 2,0 2,0 8 4 NNW - 10 -
14.02.2019 05:00:00 3,0 2,0 9 5 NNW - 10 -
14.02.2019 04:00:00 3,7 3,0 8 4 NW 1033,3 10 0,0
14.02.2019 03:00:00 - - - - - - - -
14.02.2019 02:00:00 - - - - - - - -
14.02.2019 01:00:00 5,3 4,5 9 5 N 1033,7 10 -
14.02.2019 00:00:00 8,0 7,0 11 6 WNW - 10 -
13.02.2019 23:00:00 8,0 6,0 4 2 - - 10 -
13.02.2019 22:00:00 8,5 7,1 8 4 NW 1033,9 10 0,0
13.02.2019 21:00:00 10,0 7,0 11 6 NW - 10 -
13.02.2019 20:00:00 11,0 6,0 8 4 N - 10 -
13.02.2019 19:00:00 11,3 4,7 5 3 ONO 1033,3 10 -
13.02.2019 18:00:00 13,0 3,0 5 3 OZO - 10 -
13.02.2019 17:00:00 14,0 2,0 11 6 Z - 10 -
13.02.2019 16:00:00 16,7 0,8 9 5 NNW 1031,8 10 0,0
13.02.2019 15:00:00 17,0 1,0 15 8 NW - 10 -
13.02.2019 14:00:00 16,0 1,0 13 7 WNW - 10 -
13.02.2019 13:00:00 15,5 2,3 16 9 NW 1032,7 10 -
13.02.2019 12:00:00 13,0 7,0 11 6 NW - 10 -
13.02.2019 11:00:00 10,0 6,0 16 9 NW - 10 -
13.02.2019 10:00:00 7,7 4,0 15 8 NW 1033,1 10 0,0
13.02.2019 09:00:00 5,0 3,0 13 7 NNW - 10 -
13.02.2019 08:00:00 2,0 1,0 13 7 NNW - 10 -
13.02.2019 07:00:00 2,7 1,9 11 6 NNW 1031,7 10 -
13.02.2019 06:00:00 3,0 2,0 9 5 NNW - 10 -
13.02.2019 05:00:00 3,0 2,0 13 7 NNW - 10 -
13.02.2019 04:00:00 3,2 1,7 8 4 NW 1030,5 10 0,0
13.02.2019 03:00:00 4,0 2,0 9 5 NNW - 10 -
13.02.2019 02:00:00 5,0 3,0 9 5 NW - 10 -
13.02.2019 01:00:00 5,7 3,5 4 2 - 1030,2 10 -
13.02.2019 00:00:00 7,0 4,0 13 7 N - 10 -
12.02.2019 23:00:00 8,0 4,0 16 9 N - 10 -
12.02.2019 22:00:00 7,7 2,8 15 8 N 1029,4 10 0,0
12.02.2019 21:00:00 8,0 1,0 13 7 NNO - 10 -
12.02.2019 20:00:00 9,0 2,0 13 7 NW - 10 -
12.02.2019 19:00:00 10,6 -0,2 16 9 NNW 1027,7 10 -
12.02.2019 18:00:00 - - - - - - - -
12.02.2019 17:00:00 - - - - - - - -
12.02.2019 16:00:00 15,7 -0,8 15 8 NW 1025,9 10 0,0
12.02.2019 15:00:00 16,0 1,0 13 7 NNW - 10 -
12.02.2019 14:00:00 15,0 2,0 13 7 NW - 10 -
12.02.2019 13:00:00 15,0 0,7 18 10 NW 1026,3 10 -
12.02.2019 12:00:00 14,0 5,0 15 8 NNW - 10 -
12.02.2019 11:00:00 12,0 5,0 16 9 NW - 10 -
12.02.2019 10:00:00 10,0 4,1 15 8 NW 1026,5 10 0,0
12.02.2019 09:00:00 7,0 3,0 13 7 NNW - 10 -
12.02.2019 08:00:00 4,0 1,0 15 8 N - 10 -
12.02.2019 07:00:00 3,8 1,6 11 6 NNW 1024,5 10 -
12.02.2019 06:00:00 4,0 1,0 11 6 NO - 10 -
12.02.2019 05:00:00 4,0 1,0 9 5 NO - 10 -
12.02.2019 04:00:00 5,1 2,6 8 4 NNW 1023,5 10 0,0
12.02.2019 03:00:00 - - - - - - - -
12.02.2019 02:00:00 7,0 2,0 8 4 ONO - 10 -
12.02.2019 01:00:00 6,4 2,1 9 5 NO 1022,6 10 -

tt = temperatuur
td = dauwpunt
ff = windsnelheid
dd = windrichting
ppp = luchtdruk
vv = zicht
rr = neerslag

Weerstations in de omgeving